Time,TemperatureF,DewpointF,PressureIn,WindDirection,WindDirectionDegrees,WindSpeedMPH,WindSpeedGustMPH,Humidity,HourlyPrecipIn,Conditions,Clouds,dailyrainin,SoftwareType,DateUTC
2013-06-17 00:01:00,72.0,70.5,30.00,WSW,247,3.5,3.5,95,0.00,CLR,SKC,0.00,WeatherDisplay:10.37,2013-06-17 04:01:00,
2013-06-17 00:06:00,72.0,70.2,30.00,WSW,247,0.0,0.0,94,0.00,CLR,SKC,0.00,WeatherDisplay:10.37,2013-06-17 04:06:00,
2013-06-17 00:11:00,72.0,70.2,30.00,WSW,247,3.5,3.5,94,0.00,CLR,SKC,0.00,WeatherDisplay:10.37,2013-06-17 04:11:00,
2013-06-17 00:16:00,72.0,70.2,30.00,WSW,247,0.0,0.0,94,0.00,CLR,SKC,0.00,WeatherDisplay:10.37,2013-06-17 04:16:00,
2013-06-17 00:21:00,72.0,69.9,30.00,WSW,247,0.0,0.0,93,0.00,CLR,SKC,0.00,WeatherDisplay:10.37,2013-06-17 04:21:00,
2013-06-17 00:26:00,72.0,70.2,30.00,SSW,202,2.0,2.0,94,0.00,CLR,SKC,0.00,WeatherDisplay:10.37,2013-06-17 04:26:00,
2013-06-17 00:31:00,72.0,70.2,30.00,South,180,6.9,6.9,94,0.00,CLR,SKC,0.00,WeatherDisplay:10.37,2013-06-17 04:31:00,
2013-06-17 00:36:00,72.0,70.2,30.00,SSW,202,3.5,3.5,94,0.00,CLR,SKC,0.00,WeatherDisplay:10.37,2013-06-17 04:36:00,
2013-06-17 00:41:00,72.0,70.2,30.00,SSW,202,3.5,3.5,94,0.00,CLR,SKC,0.00,WeatherDisplay:10.37,2013-06-17 04:41:00,
2013-06-17 00:46:00,72.0,70.2,30.00,West,270,2.3,2.3,94,0.00,CLR,SKC,0.00,WeatherDisplay:10.37,2013-06-17 04:46:00,
2013-06-17 00:51:00,72.0,70.2,30.00,SW,225,1.2,1.2,94,0.00,CLR,SKC,0.00,WeatherDisplay:10.37,2013-06-17 04:51:00,
2013-06-17 00:56:00,72.0,70.2,30.00,SSE,157,3.5,3.5,94,0.00,CLR,SKC,0.00,WeatherDisplay:10.37,2013-06-17 04:56:00,
2013-06-17 01:01:00,72.0,70.2,30.00,South,180,3.5,3.5,94,0.00,CLR,SKC,0.00,WeatherDisplay:10.37,2013-06-17 05:01:00,
2013-06-17 01:06:00,72.0,70.2,30.00,SSW,202,4.6,4.6,94,0.00,CLR,SKC,0.00,WeatherDisplay:10.37,2013-06-17 05:06:00,
2013-06-17 01:11:00,71.0,69.2,30.00,South,180,0.0,0.0,94,0.00,CLR,SKC,0.00,WeatherDisplay:10.37,2013-06-17 05:11:00,
2013-06-17 01:16:00,71.0,69.5,30.00,WSW,247,2.3,0.0,95,0.00,CLR,SKC,0.00,WeatherDisplay:10.37,2013-06-17 05:16:00,
2013-06-17 01:21:00,71.0,69.8,30.01,West,270,3.5,3.5,96,0.00,CLR,SKC,0.00,WeatherDisplay:10.37,2013-06-17 05:21:00,
2013-06-17 01:26:00,71.0,69.8,30.01,SSE,157,2.3,2.3,96,0.00,CLR,SKC,0.00,WeatherDisplay:10.37,2013-06-17 05:26:00,
2013-06-17 01:31:00,71.0,69.5,30.01,SSW,202,4.6,4.6,95,0.00,CLR,SKC,0.00,WeatherDisplay:10.37,2013-06-17 05:31:00,
2013-06-17 01:36:00,71.0,69.5,30.01,SW,225,3.5,3.5,95,0.00,CLR,SKC,0.00,WeatherDisplay:10.37,2013-06-17 05:36:00,
2013-06-17 01:41:00,71.0,69.5,30.00,South,180,4.6,4.6,95,0.00,CLR,SKC,0.00,WeatherDisplay:10.37,2013-06-17 05:41:00,
2013-06-17 01:46:00,71.0,69.8,30.00,SW,225,2.3,2.3,96,0.00,CLR,SKC,0.00,WeatherDisplay:10.37,2013-06-17 05:46:00,
2013-06-17 01:51:00,71.0,69.8,30.01,SW,225,3.5,3.5,96,0.00,CLR,SKC,0.00,WeatherDisplay:10.37,2013-06-17 05:51:00,
2013-06-17 01:56:00,71.0,69.8,30.01,West,270,3.5,3.5,96,0.00,CLR,SKC,0.00,WeatherDisplay:10.37,2013-06-17 05:56:00,
2013-06-17 02:01:00,71.0,69.8,30.01,WSW,247,3.5,3.5,96,0.00,CLR,SKC,0.00,WeatherDisplay:10.37,2013-06-17 06:01:00,
2013-06-17 02:06:00,70.0,68.8,30.01,WSW,247,1.2,1.2,96,0.00,CLR,SKC,0.00,WeatherDisplay:10.37,2013-06-17 06:06:00,
2013-06-17 02:11:00,70.0,69.1,30.01,NW,315,3.5,3.5,97,0.00,CLR,SKC,0.00,WeatherDisplay:10.37,2013-06-17 06:11:00,
2013-06-17 02:16:00,70.0,69.1,30.01,WSW,247,5.8,5.8,97,0.00,CLR,SKC,0.00,WeatherDisplay:10.37,2013-06-17 06:16:00,
2013-06-17 02:21:00,70.0,69.1,30.01,SW,225,2.3,2.3,97,0.00,CLR,SKC,0.00,WeatherDisplay:10.37,2013-06-17 06:21:00,
2013-06-17 02:26:00,70.0,69.1,30.01,SW,225,1.2,1.2,97,0.00,CLR,SKC,0.00,WeatherDisplay:10.37,2013-06-17 06:26:00,
2013-06-17 02:31:00,70.0,69.4,30.00,SW,225,3.5,3.5,98,0.00,CLR,SKC,0.00,WeatherDisplay:10.37,2013-06-17 06:31:00,
2013-06-17 02:36:00,70.0,69.4,30.00,SSW,202,1.2,1.2,98,0.00,CLR,SKC,0.00,WeatherDisplay:10.37,2013-06-17 06:36:00,
2013-06-17 02:41:00,70.0,69.1,30.00,SW,225,3.5,3.5,97,0.00,CLR,SKC,0.00,WeatherDisplay:10.37,2013-06-17 06:41:00,
2013-06-17 02:46:00,70.0,69.7,30.00,WSW,247,2.3,2.3,99,0.00,CLR,SKC,0.00,WeatherDisplay:10.37,2013-06-17 06:46:00,
2013-06-17 02:51:00,70.0,69.7,30.01,SW,225,2.0,2.0,99,0.00,CLR,SKC,0.00,WeatherDisplay:10.37,2013-06-17 06:51:00,
2013-06-17 02:56:00,70.0,69.7,30.01,WSW,247,2.3,2.3,99,0.00,CLR,SKC,0.00,WeatherDisplay:10.37,2013-06-17 06:56:00,
2013-06-17 03:01:00,70.0,69.7,30.00,SW,225,1.2,1.2,99,0.00,CLR,SKC,0.00,WeatherDisplay:10.37,2013-06-17 07:01:00,
2013-06-17 03:06:00,70.0,69.7,30.00,South,180,0.0,0.0,99,0.00,CLR,SKC,0.00,WeatherDisplay:10.37,2013-06-17 07:06:00,
2013-06-17 03:11:00,70.0,69.7,30.00,WNW,292,1.2,1.2,99,0.00,CLR,SKC,0.00,WeatherDisplay:10.37,2013-06-17 07:11:00,
2013-06-17 03:16:00,70.0,70.0,30.00,WNW,292,1.2,1.2,100,0.00,CLR,SKC,0.00,WeatherDisplay:10.37,2013-06-17 07:16:00,
2013-06-17 03:21:00,70.0,69.7,29.99,WNW,292,0.0,0.0,99,0.00,CLR,SKC,0.00,WeatherDisplay:10.37,2013-06-17 07:21:00,
2013-06-17 03:26:00,70.0,69.4,29.99,WNW,292,0.0,0.0,98,0.00,CLR,SKC,0.00,WeatherDisplay:10.37,2013-06-17 07:26:00,
2013-06-17 03:31:00,70.0,69.7,30.00,WNW,292,3.5,3.5,99,0.00,CLR,SKC,0.00,WeatherDisplay:10.37,2013-06-17 07:31:00,
2013-06-17 03:36:00,70.0,69.7,30.00,WNW,292,3.5,3.5,99,0.00,CLR,SKC,0.00,WeatherDisplay:10.37,2013-06-17 07:36:00,
2013-06-17 03:41:00,70.0,69.7,30.00,South,180,3.5,3.5,99,0.00,CLR,SKC,0.00,WeatherDisplay:10.37,2013-06-17 07:41:00,
2013-06-17 03:46:00,70.0,69.7,30.00,WSW,247,3.5,3.5,99,0.00,CLR,SKC,0.00,WeatherDisplay:10.37,2013-06-17 07:46:00,
2013-06-17 03:51:00,70.0,69.7,30.00,WSW,247,2.3,2.3,99,0.00,CLR,SKC,0.00,WeatherDisplay:10.37,2013-06-17 07:51:00,
2013-06-17 03:56:00,70.0,69.4,30.00,WSW,247,1.2,1.2,98,0.00,CLR,SKC,0.00,WeatherDisplay:10.37,2013-06-17 07:56:00,
2013-06-17 04:01:00,70.0,69.4,30.00,WSW,247,3.0,3.0,98,0.00,CLR,SKC,0.00,WeatherDisplay:10.37,2013-06-17 08:01:00,
2013-06-17 04:06:00,70.0,69.4,30.00,SW,225,2.3,2.3,98,0.00,CLR,SKC,0.00,WeatherDisplay:10.37,2013-06-17 08:06:00,
2013-06-17 04:11:00,70.0,69.4,30.00,WSW,247,3.5,3.5,98,0.00,CLR,SKC,0.00,WeatherDisplay:10.37,2013-06-17 08:11:00,
2013-06-17 04:16:00,70.0,69.4,30.00,WSW,247,3.5,3.5,98,0.00,CLR,SKC,0.00,WeatherDisplay:10.37,2013-06-17 08:16:00,
2013-06-17 04:21:00,70.0,69.4,30.00,WSW,247,3.5,3.5,98,0.00,CLR,SKC,0.00,WeatherDisplay:10.37,2013-06-17 08:21:00,
2013-06-17 04:26:00,70.0,69.1,30.00,SW,225,3.5,3.5,97,0.00,CLR,SKC,0.00,WeatherDisplay:10.37,2013-06-17 08:26:00,
2013-06-17 04:31:00,70.0,69.4,30.00,SW,225,3.5,3.5,98,0.00,CLR,SKC,0.00,WeatherDisplay:10.37,2013-06-17 08:31:00,
2013-06-17 04:36:00,70.0,69.1,30.00,SW,225,3.0,3.0,97,0.00,CLR,SKC,0.00,WeatherDisplay:10.37,2013-06-17 08:36:00,
2013-06-17 04:41:00,70.0,69.1,30.00,SSE,157,3.5,3.5,97,0.00,CLR,SKC,0.00,WeatherDisplay:10.37,2013-06-17 08:41:00,
2013-06-17 04:46:00,70.0,69.4,30.00,South,180,3.5,3.5,98,0.00,CLR,SKC,0.00,WeatherDisplay:10.37,2013-06-17 08:46:00,
2013-06-17 04:51:00,70.0,69.4,30.00,WSW,247,3.5,3.5,98,0.00,CLR,SKC,0.00,WeatherDisplay:10.37,2013-06-17 08:51:00,
2013-06-17 04:56:00,70.0,69.7,30.00,West,270,2.3,2.3,99,0.00,CLR,SKC,0.00,WeatherDisplay:10.37,2013-06-17 08:56:00,
2013-06-17 05:01:00,70.0,69.7,30.00,South,180,3.5,0.0,99,0.00,CLR,SKC,0.00,WeatherDisplay:10.37,2013-06-17 09:01:00,
2013-06-17 05:06:00,70.0,69.7,30.00,South,180,0.0,0.0,99,0.00,CLR,SKC,0.00,WeatherDisplay:10.37,2013-06-17 09:06:00,
2013-06-17 05:11:00,69.0,68.1,30.00,South,180,1.2,0.0,97,0.00,CLR,SKC,0.00,WeatherDisplay:10.37,2013-06-17 09:11:00,
2013-06-17 05:16:00,69.0,68.4,30.00,WSW,247,2.0,2.0,98,0.00,CLR,SKC,0.00,WeatherDisplay:10.37,2013-06-17 09:16:00,
2013-06-17 05:21:00,69.0,68.4,30.01,WSW,247,1.0,1.0,98,0.00,CLR,SKC,0.00,WeatherDisplay:10.37,2013-06-17 09:21:00,
2013-06-17 05:26:00,69.0,68.4,30.01,WSW,247,2.3,2.3,98,0.00,CLR,SKC,0.00,WeatherDisplay:10.37,2013-06-17 09:26:00,
2013-06-17 05:31:00,69.0,68.7,30.00,WSW,247,2.3,2.3,99,0.00,CLR,SKC,0.00,WeatherDisplay:10.37,2013-06-17 09:31:00,
2013-06-17 05:36:00,69.0,68.7,30.00,SW,225,3.5,3.5,99,0.00,CLR,SKC,0.00,WeatherDisplay:10.37,2013-06-17 09:36:00,
2013-06-17 05:41:00,69.0,68.7,30.01,WSW,247,2.3,2.3,99,0.00,CLR,SKC,0.00,WeatherDisplay:10.37,2013-06-17 09:41:00,
2013-06-17 05:46:00,69.0,68.7,30.01,WSW,247,3.5,3.5,99,0.00,CLR,SKC,0.00,WeatherDisplay:10.37,2013-06-17 09:46:00,
2013-06-17 05:51:00,69.0,69.0,30.01,WSW,247,3.5,3.5,100,0.00,CLR,SKC,0.00,WeatherDisplay:10.37,2013-06-17 09:51:00,
2013-06-17 05:56:00,69.0,69.0,30.01,WSW,247,0.0,0.0,100,0.00,CLR,SKC,0.00,WeatherDisplay:10.37,2013-06-17 09:56:00,
2013-06-17 06:01:00,69.0,69.0,30.01,WSW,247,3.5,3.5,100,0.00,CLR,SKC,0.00,WeatherDisplay:10.37,2013-06-17 10:01:00,
2013-06-17 06:06:00,69.0,69.0,30.01,West,270,1.2,1.2,100,0.00,CLR,SKC,0.00,WeatherDisplay:10.37,2013-06-17 10:06:00,
2013-06-17 06:11:00,69.0,69.0,30.01,WSW,247,3.5,3.5,100,0.00,CLR,SKC,0.00,WeatherDisplay:10.37,2013-06-17 10:11:00,
2013-06-17 06:16:00,69.0,69.0,30.01,West,270,3.5,3.5,100,0.00,CLR,SKC,0.00,WeatherDisplay:10.37,2013-06-17 10:16:00,
2013-06-17 06:21:00,69.0,69.0,30.01,West,270,3.5,3.5,100,0.00,CLR,SKC,0.00,WeatherDisplay:10.37,2013-06-17 10:21:00,
2013-06-17 06:26:00,69.0,68.7,30.01,SW,225,0.0,0.0,99,0.00,CLR,SKC,0.00,WeatherDisplay:10.37,2013-06-17 10:26:00,
2013-06-17 06:31:00,69.0,69.0,30.01,SW,225,0.0,0.0,100,0.00,CLR,SKC,0.00,WeatherDisplay:10.37,2013-06-17 10:31:00,
2013-06-17 06:36:00,69.0,68.7,30.01,SW,225,3.5,3.5,99,0.00,CLR,SKC,0.00,WeatherDisplay:10.37,2013-06-17 10:36:00,
2013-06-17 06:41:00,69.0,69.0,30.01,SW,225,3.5,3.5,100,0.00,CLR,SKC,0.00,WeatherDisplay:10.37,2013-06-17 10:41:00,
2013-06-17 06:46:00,69.0,68.7,30.01,WSW,247,3.5,3.5,99,0.00,CLR,SKC,0.00,WeatherDisplay:10.37,2013-06-17 10:46:00,
2013-06-17 06:51:00,69.0,68.7,30.01,WSW,247,3.5,3.5,99,0.00,CLR,SKC,0.00,WeatherDisplay:10.37,2013-06-17 10:51:00,
2013-06-17 06:56:00,69.0,68.7,30.01,WSW,247,3.5,3.5,99,0.00,CLR,SKC,0.00,WeatherDisplay:10.37,2013-06-17 10:56:00,
2013-06-17 07:01:00,70.0,70.0,30.01,SE,135,3.5,3.5,100,0.00,CLR,SKC,0.00,WeatherDisplay:10.37,2013-06-17 11:01:00,
2013-06-17 07:06:00,70.0,69.7,30.01,WSW,247,3.5,3.5,99,0.00,CLR,SKC,0.00,WeatherDisplay:10.37,2013-06-17 11:06:00,
2013-06-17 07:11:00,70.0,69.7,30.00,WSW,247,2.3,2.3,99,0.00,CLR,SKC,0.00,WeatherDisplay:10.37,2013-06-17 11:11:00,
2013-06-17 07:16:00,70.0,69.1,30.00,NW,315,7.0,7.0,97,0.00,CLR,SKC,0.00,WeatherDisplay:10.37,2013-06-17 11:16:00,
2013-06-17 07:21:00,70.0,69.1,30.00,South,180,0.0,0.0,97,0.00,CLR,SKC,0.00,WeatherDisplay:10.37,2013-06-17 11:21:00,
2013-06-17 07:26:00,71.0,70.1,30.00,SW,225,3.5,3.5,97,0.00,CLR,SKC,0.00,WeatherDisplay:10.37,2013-06-17 11:26:00,
2013-06-17 07:31:00,71.0,70.1,29.99,West,270,3.5,3.5,97,0.00,CLR,SKC,0.00,WeatherDisplay:10.37,2013-06-17 11:31:00,
2013-06-17 07:36:00,71.0,69.8,29.99,WSW,247,3.5,3.5,96,0.00,CLR,SKC,0.00,WeatherDisplay:10.37,2013-06-17 11:36:00,
2013-06-17 07:41:00,72.0,70.2,29.98,East,90,3.0,3.0,94,0.00,CLR,SKC,0.00,WeatherDisplay:10.37,2013-06-17 11:41:00,
2013-06-17 07:46:00,72.0,69.9,29.98,WSW,247,4.6,4.6,93,0.00,CLR,SKC,0.00,WeatherDisplay:10.37,2013-06-17 11:46:00,
2013-06-17 07:51:00,72.0,69.5,29.98,SSW,202,3.5,3.5,92,0.00,CLR,SKC,0.00,WeatherDisplay:10.37,2013-06-17 11:51:00,
2013-06-17 07:56:00,73.0,69.9,29.98,WSW,247,3.5,3.5,90,0.00,CLR,SKC,0.00,WeatherDisplay:10.37,2013-06-17 11:56:00,
2013-06-17 08:01:00,73.0,69.6,29.97,WSW,247,3.5,3.5,89,0.00,CLR,SKC,0.00,WeatherDisplay:10.37,2013-06-17 12:01:00,
2013-06-17 08:06:00,73.0,69.2,29.97,WSW,247,5.8,5.8,88,0.00,CLR,SKC,0.00,WeatherDisplay:10.37,2013-06-17 12:06:00,
2013-06-17 08:11:00,73.0,68.9,29.97,WSW,247,4.0,4.0,87,0.00,CLR,SKC,0.00,WeatherDisplay:10.37,2013-06-17 12:11:00,
2013-06-17 08:16:00,73.0,68.9,29.97,WSW,247,3.5,3.5,87,0.00,CLR,SKC,0.00,WeatherDisplay:10.37,2013-06-17 12:16:00,
2013-06-17 08:21:00,73.0,68.9,29.97,SE,135,3.5,3.5,87,0.00,CLR,SKC,0.00,WeatherDisplay:10.37,2013-06-17 12:21:00,
2013-06-17 08:26:00,74.0,69.9,29.97,SW,225,3.5,3.5,87,0.00,CLR,SKC,0.00,WeatherDisplay:10.37,2013-06-17 12:26:00,
2013-06-17 08:31:00,74.0,69.9,29.97,WSW,247,3.5,3.5,87,0.00,CLR,SKC,0.00,WeatherDisplay:10.37,2013-06-17 12:31:00,
2013-06-17 08:36:00,74.0,69.9,29.97,WSW,247,3.5,3.5,87,0.00,CLR,SKC,0.00,WeatherDisplay:10.37,2013-06-17 12:36:00,
2013-06-17 08:41:00,74.0,69.9,29.97,SW,225,3.5,3.5,87,0.00,CLR,SKC,0.00,WeatherDisplay:10.37,2013-06-17 12:41:00,
2013-06-17 08:46:00,74.0,69.9,29.97,WSW,247,3.5,3.5,87,0.00,CLR,SKC,0.00,WeatherDisplay:10.37,2013-06-17 12:46:00,
2013-06-17 08:51:00,75.0,70.9,29.97,NW,315,2.3,2.3,87,0.00,CLR,SKC,0.00,WeatherDisplay:10.37,2013-06-17 12:51:00,
2013-06-17 08:56:00,75.0,70.5,29.97,SSW,202,3.5,3.5,86,0.00,CLR,SKC,0.00,WeatherDisplay:10.37,2013-06-17 12:56:00,
2013-06-17 09:01:00,75.0,70.5,29.97,West,270,4.0,4.0,86,0.00,CLR,SKC,0.00,WeatherDisplay:10.37,2013-06-17 13:01:00,
2013-06-17 09:06:00,75.0,70.2,29.97,SW,225,4.0,4.0,85,0.00,CLR,SKC,0.00,WeatherDisplay:10.37,2013-06-17 13:06:00,
2013-06-17 09:11:00,75.0,70.2,29.96,WSW,247,3.5,3.5,85,0.00,CLR,SKC,0.00,WeatherDisplay:10.37,2013-06-17 13:11:00,
2013-06-17 09:16:00,75.0,70.2,29.96,WSW,247,3.5,3.5,85,0.00,CLR,SKC,0.00,WeatherDisplay:10.37,2013-06-17 13:16:00,
2013-06-17 09:21:00,76.0,71.8,29.96,West,270,5.8,5.8,87,0.00,CLR,SKC,0.00,WeatherDisplay:10.37,2013-06-17 13:21:00,
2013-06-17 09:26:00,76.0,71.2,29.96,West,270,3.5,3.5,85,0.00,CLR,SKC,0.00,WeatherDisplay:10.37,2013-06-17 13:26:00,
2013-06-17 09:31:00,76.0,71.5,29.95,WSW,247,3.5,3.5,86,0.00,CLR,SKC,0.00,WeatherDisplay:10.37,2013-06-17 13:31:00,
2013-06-17 09:36:00,75.0,69.8,29.95,WSW,247,3.5,3.5,84,0.00,CLR,SKC,0.00,WeatherDisplay:10.37,2013-06-17 13:36:00,
2013-06-17 09:41:00,76.0,71.2,29.96,SW,225,3.5,3.5,85,0.00,CLR,SKC,0.00,WeatherDisplay:10.37,2013-06-17 13:41:00,
2013-06-17 09:46:00,76.0,71.2,29.96,SSW,202,3.5,3.5,85,0.00,CLR,SKC,0.00,WeatherDisplay:10.37,2013-06-17 13:46:00,
2013-06-17 09:51:00,76.0,71.2,29.96,West,270,3.5,3.5,85,0.00,CLR,SKC,0.00,WeatherDisplay:10.37,2013-06-17 13:51:00,
2013-06-17 09:56:00,78.0,72.4,29.96,SSW,202,3.5,3.5,83,0.00,CLR,SKC,0.00,WeatherDisplay:10.37,2013-06-17 13:56:00,
2013-06-17 10:01:00,79.0,73.7,29.94,West,270,2.3,2.3,84,0.00,CLR,SKC,0.00,WeatherDisplay:10.37,2013-06-17 14:01:00,
2013-06-17 10:06:00,78.0,71.3,29.94,WSW,247,4.6,4.6,80,0.00,CLR,SKC,0.00,WeatherDisplay:10.37,2013-06-17 14:06:00,
2013-06-17 10:11:00,79.0,71.9,29.93,SSE,157,3.5,3.5,79,0.00,CLR,SKC,0.00,WeatherDisplay:10.37,2013-06-17 14:11:00,
2013-06-17 10:16:00,79.0,71.9,29.93,WSW,247,3.5,3.5,79,0.00,CLR,SKC,0.00,WeatherDisplay:10.37,2013-06-17 14:16:00,
2013-06-17 10:21:00,80.0,72.5,29.91,West,270,2.3,2.3,78,0.00,CLR,SKC,0.00,WeatherDisplay:10.37,2013-06-17 14:21:00,
2013-06-17 10:26:00,81.0,72.7,29.91,South,180,3.5,3.5,76,0.00,CLR,SKC,0.00,WeatherDisplay:10.37,2013-06-17 14:26:00,
2013-06-17 10:31:00,82.0,72.9,29.91,South,180,0.0,0.0,74,0.00,CLR,SKC,0.00,WeatherDisplay:10.37,2013-06-17 14:31:00,
2013-06-17 10:36:00,82.0,72.1,29.91,SW,225,3.5,3.5,72,0.00,CLR,SKC,0.00,WeatherDisplay:10.37,2013-06-17 14:36:00,
2013-06-17 10:41:00,82.0,72.5,29.90,SW,225,3.5,3.5,73,0.00,CLR,SKC,0.00,WeatherDisplay:10.37,2013-06-17 14:41:00,
2013-06-17 10:46:00,82.0,72.5,29.90,West,270,1.2,1.2,73,0.00,CLR,SKC,0.00,WeatherDisplay:10.37,2013-06-17 14:46:00,
2013-06-17 10:51:00,83.0,73.0,29.90,WSW,247,4.0,4.0,72,0.00,CLR,SKC,0.00,WeatherDisplay:10.37,2013-06-17 14:51:00,
2013-06-17 10:56:00,83.0,72.6,29.90,SW,225,2.3,2.3,71,0.00,CLR,SKC,0.00,WeatherDisplay:10.37,2013-06-17 14:56:00,
2013-06-17 11:01:00,83.0,71.8,29.89,South,180,3.0,3.0,69,0.00,CLR,SKC,0.00,WeatherDisplay:10.37,2013-06-17 15:01:00,
2013-06-17 11:06:00,83.0,71.8,29.89,SSE,157,6.0,6.0,69,0.00,CLR,SKC,0.00,WeatherDisplay:10.37,2013-06-17 15:06:00,
2013-06-17 11:11:00,83.0,73.0,29.89,WSW,247,3.5,3.5,72,0.00,CLR,SKC,0.00,WeatherDisplay:10.37,2013-06-17 15:11:00,
2013-06-17 11:16:00,84.0,74.0,29.89,SW,225,3.5,3.5,72,0.00,CLR,SKC,0.00,WeatherDisplay:10.37,2013-06-17 15:16:00,
2013-06-17 11:21:00,84.0,72.3,29.89,South,180,5.8,5.8,68,0.00,CLR,SKC,0.00,WeatherDisplay:10.37,2013-06-17 15:21:00,
2013-06-17 11:26:00,84.0,73.6,29.89,SSW,202,3.5,3.5,71,0.00,CLR,SKC,0.00,WeatherDisplay:10.37,2013-06-17 15:26:00,
2013-06-17 11:31:00,84.0,74.0,29.89,WSW,247,3.5,3.5,72,0.00,CLR,SKC,0.00,WeatherDisplay:10.37,2013-06-17 15:31:00,
2013-06-17 11:36:00,84.0,73.2,29.89,SSW,202,8.1,8.1,70,0.00,CLR,SKC,0.00,WeatherDisplay:10.37,2013-06-17 15:36:00,
2013-06-17 11:41:00,85.0,74.5,29.88,WSW,247,3.5,3.5,71,0.00,CLR,SKC,0.00,WeatherDisplay:10.37,2013-06-17 15:41:00,
2013-06-17 11:46:00,85.0,74.1,29.88,SSW,202,4.0,4.0,70,0.00,CLR,SKC,0.00,WeatherDisplay:10.37,2013-06-17 15:46:00,
2013-06-17 11:51:00,85.0,74.5,29.88,ESE,112,3.5,3.5,71,0.00,CLR,SKC,0.00,WeatherDisplay:10.37,2013-06-17 15:51:00,
2013-06-17 11:56:00,84.0,73.2,29.88,South,180,4.6,4.6,70,0.00,CLR,SKC,0.00,WeatherDisplay:10.37,2013-06-17 15:56:00,
2013-06-17 12:01:00,83.0,72.6,29.89,South,180,4.6,4.6,71,0.00,CLR,SKC,0.00,WeatherDisplay:10.37,2013-06-17 16:01:00,
2013-06-17 12:06:00,83.0,73.4,29.89,WSW,247,3.5,3.5,73,0.00,CLR,SKC,0.00,WeatherDisplay:10.37,2013-06-17 16:06:00,
2013-06-17 12:11:00,82.0,73.3,29.91,South,180,2.3,2.3,75,0.00,CLR,SKC,0.00,WeatherDisplay:10.37,2013-06-17 16:11:00,
2013-06-17 12:16:00,82.0,74.1,29.91,West,270,3.5,3.5,77,0.00,CLR,SKC,0.00,WeatherDisplay:10.37,2013-06-17 16:16:00,
2013-06-17 12:21:00,82.0,73.7,29.91,SW,225,3.5,3.5,76,0.00,CLR,SKC,0.00,WeatherDisplay:10.37,2013-06-17 16:21:00,
2013-06-17 12:26:00,81.0,72.7,29.91,SW,225,3.5,3.5,76,0.00,CLR,SKC,0.00,WeatherDisplay:10.37,2013-06-17 16:26:00,
2013-06-17 12:31:00,81.0,72.7,29.91,SW,225,3.5,3.5,76,0.00,CLR,SKC,0.00,WeatherDisplay:10.37,2013-06-17 16:31:00,
2013-06-17 12:36:00,81.0,73.9,29.91,SW,225,3.5,3.5,79,0.00,CLR,SKC,0.00,WeatherDisplay:10.37,2013-06-17 16:36:00,
2013-06-17 12:41:00,80.0,73.3,29.92,WNW,292,0.0,0.0,80,0.00,CLR,SKC,0.00,WeatherDisplay:10.37,2013-06-17 16:41:00,
2013-06-17 12:46:00,79.0,72.7,29.92,South,180,1.0,1.0,81,0.00,CLR,SKC,0.00,WeatherDisplay:10.37,2013-06-17 16:46:00,
2013-06-17 12:51:00,78.0,72.1,29.93,South,180,3.5,3.5,82,0.00,CLR,SKC,0.00,WeatherDisplay:10.37,2013-06-17 16:51:00,
2013-06-17 12:56:00,78.0,73.8,29.93,SW,225,1.2,1.2,87,0.00,CLR,SKC,0.00,WeatherDisplay:10.37,2013-06-17 16:56:00,
2013-06-17 13:01:00,77.0,74.2,29.93,SSE,157,3.0,3.0,91,0.00,CLR,SKC,0.00,WeatherDisplay:10.37,2013-06-17 17:01:00,
2013-06-17 13:06:00,77.0,74.8,29.93,SW,225,0.0,0.0,93,0.00,CLR,SKC,0.00,WeatherDisplay:10.37,2013-06-17 17:06:00,
2013-06-17 13:11:00,76.0,74.1,29.94,SW,225,3.5,3.5,94,0.00,CLR,SKC,0.00,WeatherDisplay:10.37,2013-06-17 17:11:00,
2013-06-17 13:16:00,75.0,73.8,29.94,SW,225,3.5,3.5,96,0.01,RA,SKC,0.01,WeatherDisplay:10.37,2013-06-17 17:16:00,
2013-06-17 13:21:00,75.0,74.4,29.96,SW,225,3.5,3.5,98,0.01,RA,SKC,0.01,WeatherDisplay:10.37,2013-06-17 17:21:00,
2013-06-17 13:26:00,75.0,75.0,29.96,SW,225,3.5,3.5,100,0.01,,SKC,0.01,WeatherDisplay:10.37,2013-06-17 17:26:00,
2013-06-17 13:31:00,75.0,75.0,29.96,SW,225,3.5,3.5,100,0.01,CLR,SKC,0.01,WeatherDisplay:10.37,2013-06-17 17:31:00,
2013-06-17 13:36:00,75.0,75.0,29.96,SW,225,2.3,2.3,100,0.02,RA,SKC,0.02,WeatherDisplay:10.37,2013-06-17 17:36:00,
2013-06-17 13:41:00,74.0,74.0,29.96,SW,225,3.5,3.5,100,0.02,RA,SKC,0.02,WeatherDisplay:10.37,2013-06-17 17:41:00,
2013-06-17 13:46:00,75.0,75.0,29.96,West,270,2.0,2.0,100,0.02,CLR,SKC,0.02,WeatherDisplay:10.37,2013-06-17 17:46:00,
2013-06-17 13:51:00,75.0,75.0,29.95,West,270,3.5,3.5,100,0.02,CLR,SKC,0.02,WeatherDisplay:10.37,2013-06-17 17:51:00,
2013-06-17 13:56:00,75.0,75.0,29.95,West,270,2.3,2.3,100,0.02,CLR,SKC,0.02,WeatherDisplay:10.37,2013-06-17 17:56:00,
2013-06-17 14:01:00,75.0,75.0,29.95,West,270,2.3,0.0,100,0.02,CLR,SKC,0.02,WeatherDisplay:10.37,2013-06-17 18:01:00,
2013-06-17 14:06:00,76.0,76.0,29.95,West,270,3.5,3.5,100,0.02,CLR,SKC,0.02,WeatherDisplay:10.37,2013-06-17 18:06:00,
2013-06-17 14:11:00,76.0,76.0,29.94,West,270,4.0,4.0,100,0.02,CLR,SKC,0.02,WeatherDisplay:10.37,2013-06-17 18:11:00,
2013-06-17 14:16:00,77.0,76.7,29.94,West,270,3.5,3.5,99,0.01,CLR,SKC,0.02,WeatherDisplay:10.37,2013-06-17 18:16:00,
2013-06-17 14:21:00,77.0,76.1,29.93,WSW,247,3.5,3.5,97,0.01,CLR,SKC,0.02,WeatherDisplay:10.37,2013-06-17 18:21:00,
2013-06-17 14:26:00,77.0,75.8,29.93,West,270,3.5,3.5,96,0.01,CLR,SKC,0.02,WeatherDisplay:10.37,2013-06-17 18:26:00,
2013-06-17 14:31:00,78.0,76.5,29.92,SSW,202,4.6,4.6,95,0.01,CLR,SKC,0.02,WeatherDisplay:10.37,2013-06-17 18:31:00,
2013-06-17 14:36:00,78.0,75.8,29.92,WSW,247,3.5,3.5,93,0.00,CLR,SKC,0.02,WeatherDisplay:10.37,2013-06-17 18:36:00,
2013-06-17 14:41:00,79.0,76.5,29.91,WSW,247,3.5,0.0,92,0.00,CLR,SKC,0.02,WeatherDisplay:10.37,2013-06-17 18:41:00,
2013-06-17 14:46:00,80.0,75.8,29.91,SSW,202,3.5,3.5,87,0.00,CLR,SKC,0.02,WeatherDisplay:10.37,2013-06-17 18:46:00,
2013-06-17 14:51:00,81.0,76.4,29.89,WSW,247,4.6,4.6,86,0.00,CLR,SKC,0.02,WeatherDisplay:10.37,2013-06-17 18:51:00,
2013-06-17 14:56:00,81.0,76.1,29.89,West,270,3.5,3.5,85,0.00,CLR,SKC,0.02,WeatherDisplay:10.37,2013-06-17 18:56:00,
2013-06-17 15:01:00,82.0,74.8,29.88,SSE,157,9.2,9.2,79,0.00,CLR,SKC,0.02,WeatherDisplay:10.37,2013-06-17 19:01:00,
2013-06-17 15:06:00,82.0,75.2,29.88,South,180,3.5,3.5,80,0.00,CLR,SKC,0.02,WeatherDisplay:10.37,2013-06-17 19:06:00,
2013-06-17 15:11:00,83.0,75.8,29.87,SSE,157,3.5,3.5,79,0.00,CLR,SKC,0.02,WeatherDisplay:10.37,2013-06-17 19:11:00,
2013-06-17 15:16:00,83.0,74.3,29.87,SE,135,7.0,7.0,75,0.00,CLR,SKC,0.02,WeatherDisplay:10.37,2013-06-17 19:16:00,
2013-06-17 15:21:00,83.0,75.8,29.87,WSW,247,1.2,1.2,79,0.00,CLR,SKC,0.02,WeatherDisplay:10.37,2013-06-17 19:21:00,
2013-06-17 15:26:00,84.0,75.2,29.87,SE,135,4.6,4.6,75,0.00,CLR,SKC,0.02,WeatherDisplay:10.37,2013-06-17 19:26:00,
2013-06-17 15:31:00,85.0,76.6,29.86,West,270,4.0,4.0,76,0.00,CLR,SKC,0.02,WeatherDisplay:10.37,2013-06-17 19:31:00,
2013-06-17 15:36:00,85.0,76.2,29.86,NW,315,6.9,6.9,75,0.00,CLR,SKC,0.02,WeatherDisplay:10.37,2013-06-17 19:36:00,
2013-06-17 15:41:00,86.0,76.7,29.85,WSW,247,8.1,8.1,74,0.00,CLR,SKC,0.02,WeatherDisplay:10.37,2013-06-17 19:41:00,
2013-06-17 15:46:00,86.0,75.9,29.85,SW,225,3.0,3.0,72,0.00,CLR,SKC,0.02,WeatherDisplay:10.37,2013-06-17 19:46:00,
2013-06-17 15:51:00,86.0,74.6,29.85,SW,225,3.5,3.5,69,0.00,CLR,SKC,0.02,WeatherDisplay:10.37,2013-06-17 19:51:00,
2013-06-17 15:56:00,86.0,75.1,29.85,South,180,5.8,5.8,70,0.00,CLR,SKC,0.02,WeatherDisplay:10.37,2013-06-17 19:56:00,
2013-06-17 16:01:00,86.0,75.5,29.85,WSW,247,5.8,5.8,71,0.00,CLR,SKC,0.02,WeatherDisplay:10.37,2013-06-17 20:01:00,
2013-06-17 16:06:00,85.0,75.0,29.85,SSE,157,3.5,3.5,72,0.00,CLR,SKC,0.02,WeatherDisplay:10.37,2013-06-17 20:06:00,
2013-06-17 16:11:00,86.0,74.6,29.85,ESE,112,5.8,5.8,69,0.00,CLR,SKC,0.02,WeatherDisplay:10.37,2013-06-17 20:11:00,
2013-06-17 16:16:00,86.0,75.1,29.85,SW,225,4.6,4.6,70,0.00,CLR,SKC,0.02,WeatherDisplay:10.37,2013-06-17 20:16:00,
2013-06-17 16:21:00,86.0,74.2,29.83,SW,225,4.6,4.6,68,0.00,CLR,SKC,0.02,WeatherDisplay:10.37,2013-06-17 20:21:00,
2013-06-17 16:26:00,86.0,75.1,29.83,SW,225,4.6,4.6,70,0.00,CLR,SKC,0.02,WeatherDisplay:10.37,2013-06-17 20:26:00,
2013-06-17 16:31:00,86.0,75.9,29.83,SW,225,2.3,2.3,72,0.00,CLR,SKC,0.02,WeatherDisplay:10.37,2013-06-17 20:31:00,
2013-06-17 16:36:00,86.0,75.1,29.83,ENE,67,3.5,3.5,70,0.00,CLR,SKC,0.02,WeatherDisplay:10.37,2013-06-17 20:36:00,
2013-06-17 16:41:00,85.0,75.0,29.83,SW,225,3.5,3.5,72,0.00,CLR,SKC,0.02,WeatherDisplay:10.37,2013-06-17 20:41:00,
2013-06-17 16:47:00,85.0,75.0,29.83,West,270,2.3,2.3,72,0.00,CLR,SKC,0.02,WeatherDisplay:10.37,2013-06-17 20:47:00,
2013-06-17 16:52:00,85.0,75.4,29.83,WSW,247,3.5,3.5,73,0.00,CLR,SKC,0.02,WeatherDisplay:10.37,2013-06-17 20:52:00,
2013-06-17 16:57:00,85.0,75.0,29.83,SW,225,3.5,3.5,72,0.00,CLR,SKC,0.02,WeatherDisplay:10.37,2013-06-17 20:57:00,
2013-06-17 17:02:00,85.0,75.4,29.83,South,180,1.2,0.0,73,0.00,CLR,SKC,0.02,WeatherDisplay:10.37,2013-06-17 21:02:00,
2013-06-17 17:07:00,84.0,75.2,29.83,WSW,247,3.5,3.5,75,0.00,CLR,SKC,0.02,WeatherDisplay:10.37,2013-06-17 21:07:00,
2013-06-17 17:12:00,84.0,75.6,29.84,West,270,2.3,2.3,76,0.00,CLR,SKC,0.02,WeatherDisplay:10.37,2013-06-17 21:12:00,
2013-06-17 17:17:00,83.0,74.6,29.84,West,270,1.2,1.2,76,0.00,CLR,SKC,0.02,WeatherDisplay:10.37,2013-06-17 21:17:00,
2013-06-17 17:22:00,84.0,76.0,29.84,West,270,2.3,2.3,77,0.00,CLR,SKC,0.02,WeatherDisplay:10.37,2013-06-17 21:22:00,
2013-06-17 17:27:00,85.0,76.2,29.84,West,270,3.5,3.5,75,0.00,CLR,SKC,0.02,WeatherDisplay:10.37,2013-06-17 21:27:00,
2013-06-17 17:32:00,85.0,75.8,29.83,West,270,3.5,3.5,74,0.00,CLR,SKC,0.02,WeatherDisplay:10.37,2013-06-17 21:32:00,
2013-06-17 17:37:00,85.0,75.4,29.83,West,270,0.0,0.0,73,0.00,CLR,SKC,0.02,WeatherDisplay:10.37,2013-06-17 21:37:00,
2013-06-17 17:42:00,85.0,75.4,29.83,West,270,3.5,3.5,73,0.00,CLR,SKC,0.02,WeatherDisplay:10.37,2013-06-17 21:42:00,
2013-06-17 17:47:00,85.0,76.6,29.83,West,270,2.3,2.3,76,0.00,CLR,SKC,0.02,WeatherDisplay:10.37,2013-06-17 21:47:00,
2013-06-17 17:52:00,84.0,76.0,29.83,West,270,2.3,2.3,77,0.00,CLR,SKC,0.02,WeatherDisplay:10.37,2013-06-17 21:52:00,
2013-06-17 17:57:00,83.0,75.0,29.83,West,270,2.3,0.0,77,0.00,CLR,SKC,0.02,WeatherDisplay:10.37,2013-06-17 21:57:00,
2013-06-17 18:02:00,83.0,75.4,29.84,West,270,2.3,2.3,78,0.00,CLR,SKC,0.02,WeatherDisplay:10.37,2013-06-17 22:02:00,
2013-06-17 18:07:00,83.0,76.2,29.84,West,270,2.3,2.3,80,0.00,CLR,SKC,0.02,WeatherDisplay:10.37,2013-06-17 22:07:00,
2013-06-17 18:12:00,82.0,75.2,29.84,West,270,1.2,1.2,80,0.00,CLR,SKC,0.02,WeatherDisplay:10.37,2013-06-17 22:12:00,
2013-06-17 18:17:00,82.0,74.8,29.84,West,270,1.0,1.1,79,0.00,CLR,SKC,0.02,WeatherDisplay:10.37,2013-06-17 22:17:00,
2013-06-17 18:22:00,82.0,75.2,29.85,West,270,3.5,3.5,80,0.00,CLR,SKC,0.02,WeatherDisplay:10.37,2013-06-17 22:22:00,
2013-06-17 18:27:00,82.0,74.8,29.85,West,270,1.2,1.2,79,0.00,CLR,SKC,0.02,WeatherDisplay:10.37,2013-06-17 22:27:00,
2013-06-17 18:32:00,82.0,75.6,29.85,West,270,0.0,0.0,81,0.00,CLR,SKC,0.02,WeatherDisplay:10.37,2013-06-17 22:32:00,
2013-06-17 18:37:00,82.0,75.2,29.85,West,270,1.2,1.2,80,0.00,CLR,SKC,0.02,WeatherDisplay:10.37,2013-06-17 22:37:00,
2013-06-17 18:42:00,82.0,75.6,29.85,West,270,2.3,2.3,81,0.00,CLR,SKC,0.02,WeatherDisplay:10.37,2013-06-17 22:42:00,
2013-06-17 18:47:00,81.0,73.9,29.85,West,270,2.3,2.3,79,0.00,CLR,SKC,0.02,WeatherDisplay:10.37,2013-06-17 22:47:00,
2013-06-17 18:52:00,81.0,74.6,29.86,West,270,1.2,1.2,81,0.00,CLR,SKC,0.02,WeatherDisplay:10.37,2013-06-17 22:52:00,
2013-06-17 18:57:00,80.0,73.6,29.86,West,270,1.2,1.2,81,0.00,CLR,SKC,0.02,WeatherDisplay:10.37,2013-06-17 22:57:00,
2013-06-17 19:02:00,80.0,74.7,29.86,West,270,2.3,2.3,84,0.00,CLR,SKC,0.02,WeatherDisplay:10.37,2013-06-17 23:02:00,
2013-06-17 19:07:00,80.0,75.1,29.86,West,270,2.3,2.3,85,0.00,CLR,SKC,0.02,WeatherDisplay:10.37,2013-06-17 23:07:00,
2013-06-17 19:12:00,80.0,75.1,29.86,West,270,0.0,0.0,85,0.00,CLR,SKC,0.02,WeatherDisplay:10.37,2013-06-17 23:12:00,
2013-06-17 19:17:00,79.0,73.7,29.86,West,270,2.3,2.3,84,0.00,CLR,SKC,0.02,WeatherDisplay:10.37,2013-06-17 23:17:00,
2013-06-17 19:22:00,79.0,74.8,29.86,West,270,1.2,1.2,87,0.00,CLR,SKC,0.02,WeatherDisplay:10.37,2013-06-17 23:22:00,
2013-06-17 19:27:00,79.0,74.8,29.86,West,270,2.3,2.3,87,0.00,CLR,SKC,0.02,WeatherDisplay:10.37,2013-06-17 23:27:00,
2013-06-17 19:32:00,79.0,74.8,29.86,West,270,2.3,2.3,87,0.00,CLR,SKC,0.02,WeatherDisplay:10.37,2013-06-17 23:32:00,
2013-06-17 19:37:00,79.0,74.8,29.86,West,270,1.0,1.1,87,0.00,CLR,SKC,0.02,WeatherDisplay:10.37,2013-06-17 23:37:00,
2013-06-17 19:42:00,79.0,75.8,29.87,West,270,2.3,2.3,90,0.00,CLR,SKC,0.02,WeatherDisplay:10.37,2013-06-17 23:42:00,
2013-06-17 19:47:00,78.0,74.8,29.87,West,270,2.3,2.3,90,0.00,CLR,SKC,0.02,WeatherDisplay:10.37,2013-06-17 23:47:00,
2013-06-17 19:52:00,78.0,74.8,29.87,West,270,2.3,0.0,90,0.00,CLR,SKC,0.02,WeatherDisplay:10.37,2013-06-17 23:52:00,
2013-06-17 19:57:00,78.0,74.8,29.87,West,270,0.0,0.0,90,0.00,CLR,SKC,0.02,WeatherDisplay:10.37,2013-06-17 23:57:00,
2013-06-17 20:02:00,78.0,74.8,29.88,West,270,2.3,2.3,90,0.00,CLR,SKC,0.02,WeatherDisplay:10.37,2013-06-18 00:02:00,
2013-06-17 20:07:00,78.0,75.5,29.88,West,270,1.2,1.2,92,0.00,CLR,SKC,0.02,WeatherDisplay:10.37,2013-06-18 00:07:00,
2013-06-17 20:12:00,78.0,75.8,29.88,West,270,0.0,0.0,93,0.00,CLR,SKC,0.02,WeatherDisplay:10.37,2013-06-18 00:12:00,
2013-06-17 20:17:00,77.0,74.5,29.88,West,270,0.0,0.0,92,0.00,CLR,SKC,0.02,WeatherDisplay:10.37,2013-06-18 00:17:00,
2013-06-17 20:22:00,77.0,74.5,29.87,West,270,0.0,0.0,92,0.00,CLR,SKC,0.02,WeatherDisplay:10.37,2013-06-18 00:22:00,
2013-06-17 20:27:00,77.0,74.8,29.87,West,270,0.0,0.0,93,0.00,CLR,SKC,0.02,WeatherDisplay:10.37,2013-06-18 00:27:00,
2013-06-17 20:32:00,77.0,74.5,29.88,WSW,247,0.0,0.0,92,0.00,CLR,SKC,0.02,WeatherDisplay:10.37,2013-06-18 00:32:00,
2013-06-17 20:37:00,77.0,74.5,29.88,SSW,202,0.0,0.1,92,0.00,CLR,SKC,0.02,WeatherDisplay:10.37,2013-06-18 00:37:00,
2013-06-17 20:42:00,77.0,73.8,29.89,SSW,202,0.0,0.0,90,0.00,CLR,SKC,0.02,WeatherDisplay:10.37,2013-06-18 00:42:00,
2013-06-17 20:47:00,76.0,73.5,29.89,SW,225,0.0,0.0,92,0.00,CLR,SKC,0.02,WeatherDisplay:10.37,2013-06-18 00:47:00,
2013-06-17 20:52:00,76.0,73.5,29.89,SW,225,1.2,1.2,92,0.00,CLR,SKC,0.02,WeatherDisplay:10.37,2013-06-18 00:52:00,
2013-06-17 20:57:00,76.0,73.5,29.89,WSW,247,1.2,0.0,92,0.00,CLR,SKC,0.02,WeatherDisplay:10.37,2013-06-18 00:57:00,
2013-06-17 21:02:00,76.0,73.2,29.89,WSW,247,0.0,0.0,91,0.00,CLR,SKC,0.02,WeatherDisplay:10.37,2013-06-18 01:02:00,
2013-06-17 21:07:00,76.0,73.5,29.89,WSW,247,1.2,1.2,92,0.00,CLR,SKC,0.02,WeatherDisplay:10.37,2013-06-18 01:07:00,
2013-06-17 21:12:00,76.0,73.5,29.89,WSW,247,0.0,0.0,92,0.00,CLR,SKC,0.02,WeatherDisplay:10.37,2013-06-18 01:12:00,
2013-06-17 21:17:00,76.0,73.5,29.89,WSW,247,1.2,1.2,92,0.00,CLR,SKC,0.02,WeatherDisplay:10.37,2013-06-18 01:17:00,
2013-06-17 21:22:00,76.0,73.2,29.90,WSW,247,0.0,0.0,91,0.00,CLR,SKC,0.02,WeatherDisplay:10.37,2013-06-18 01:22:00,
2013-06-17 21:27:00,76.0,73.2,29.90,WSW,247,0.0,0.0,91,0.00,CLR,SKC,0.02,WeatherDisplay:10.37,2013-06-18 01:27:00,
2013-06-17 21:32:00,76.0,73.5,29.91,SSW,202,3.0,3.0,92,0.00,CLR,SKC,0.02,WeatherDisplay:10.37,2013-06-18 01:32:00,
2013-06-17 21:37:00,76.0,73.8,29.91,SSE,157,3.5,3.5,93,0.00,CLR,SKC,0.02,WeatherDisplay:10.37,2013-06-18 01:37:00,
2013-06-17 21:42:00,76.0,73.5,29.91,South,180,10.4,10.4,92,0.00,CLR,SKC,0.02,WeatherDisplay:10.37,2013-06-18 01:42:00,
2013-06-17 21:47:00,76.0,73.5,29.91,SSW,202,4.6,4.6,92,0.00,CLR,SKC,0.02,WeatherDisplay:10.37,2013-06-18 01:47:00,
2013-06-17 21:52:00,76.0,73.5,29.92,WSW,247,1.2,0.0,92,0.00,CLR,SKC,0.02,WeatherDisplay:10.37,2013-06-18 01:52:00,
2013-06-17 21:57:00,76.0,73.5,29.92,SSW,202,8.1,8.1,92,0.00,CLR,SKC,0.02,WeatherDisplay:10.37,2013-06-18 01:57:00,
2013-06-17 22:02:00,76.0,73.5,29.92,SSE,157,4.6,4.6,92,0.00,CLR,SKC,0.02,WeatherDisplay:10.37,2013-06-18 02:02:00,
2013-06-17 22:07:00,76.0,73.5,29.92,SSW,202,10.4,10.4,92,0.00,CLR,SKC,0.02,WeatherDisplay:10.37,2013-06-18 02:07:00,
2013-06-17 22:12:00,76.0,73.5,29.92,South,180,8.1,8.1,92,0.00,CLR,SKC,0.02,WeatherDisplay:10.37,2013-06-18 02:12:00,
2013-06-17 22:17:00,76.0,73.5,29.92,SSE,157,5.8,5.8,92,0.00,CLR,SKC,0.02,WeatherDisplay:10.37,2013-06-18 02:17:00,
2013-06-17 22:22:00,76.0,73.8,29.93,SSW,202,8.1,8.1,93,0.00,CLR,SKC,0.02,WeatherDisplay:10.37,2013-06-18 02:22:00,
2013-06-17 22:27:00,76.0,73.8,29.93,SSE,157,5.8,5.8,93,0.00,CLR,SKC,0.02,WeatherDisplay:10.37,2013-06-18 02:27:00,
2013-06-17 22:32:00,76.0,74.1,29.92,South,180,6.9,6.9,94,0.00,CLR,SKC,0.02,WeatherDisplay:10.37,2013-06-18 02:32:00,
2013-06-17 22:37:00,75.0,73.2,29.92,SE,135,6.9,6.9,94,0.00,CLR,SKC,0.02,WeatherDisplay:10.37,2013-06-18 02:37:00,
2013-06-17 22:42:00,75.0,73.2,29.93,SE,135,7.0,7.0,94,0.00,CLR,SKC,0.02,WeatherDisplay:10.37,2013-06-18 02:42:00,
2013-06-17 22:47:00,75.0,73.8,29.93,South,180,6.0,6.0,96,0.00,CLR,SKC,0.02,WeatherDisplay:10.37,2013-06-18 02:47:00,
2013-06-17 22:52:00,75.0,73.8,29.93,SSW,202,6.9,6.9,96,0.00,CLR,SKC,0.02,WeatherDisplay:10.37,2013-06-18 02:52:00,
2013-06-17 22:57:00,75.0,73.8,29.93,South,180,4.6,4.6,96,0.00,CLR,SKC,0.02,WeatherDisplay:10.37,2013-06-18 02:57:00,
2013-06-17 23:02:00,75.0,74.1,29.93,SE,135,6.0,6.0,97,0.00,CLR,SKC,0.02,WeatherDisplay:10.37,2013-06-18 03:02:00,
2013-06-17 23:07:00,75.0,74.1,29.93,SSE,157,3.5,3.5,97,0.00,CLR,SKC,0.02,WeatherDisplay:10.37,2013-06-18 03:07:00,
2013-06-17 23:12:00,75.0,74.4,29.93,South,180,4.6,4.6,98,0.00,CLR,SKC,0.02,WeatherDisplay:10.37,2013-06-18 03:12:00,
2013-06-17 23:17:00,75.0,74.4,29.93,SSE,157,1.2,0.0,98,0.00,CLR,SKC,0.02,WeatherDisplay:10.37,2013-06-18 03:17:00,
2013-06-17 23:22:00,75.0,74.7,29.93,South,180,6.9,6.9,99,0.00,CLR,SKC,0.02,WeatherDisplay:10.37,2013-06-18 03:22:00,
2013-06-17 23:27:00,74.0,73.7,29.93,South,180,0.0,0.0,99,0.00,CLR,SKC,0.02,WeatherDisplay:10.37,2013-06-18 03:27:00,
2013-06-17 23:32:00,74.0,74.0,29.93,South,180,2.0,2.0,100,0.00,CLR,SKC,0.02,WeatherDisplay:10.37,2013-06-18 03:32:00,
2013-06-17 23:37:00,74.0,74.0,29.93,SSW,202,3.5,3.5,100,0.00,CLR,SKC,0.02,WeatherDisplay:10.37,2013-06-18 03:37:00,
2013-06-17 23:42:00,74.0,74.0,29.93,SSW,202,0.0,0.0,100,0.00,CLR,SKC,0.02,WeatherDisplay:10.37,2013-06-18 03:42:00,
2013-06-17 23:47:00,74.0,74.0,29.93,SSE,157,2.3,2.3,100,0.00,CLR,SKC,0.02,WeatherDisplay:10.37,2013-06-18 03:47:00,
2013-06-17 23:52:00,74.0,74.0,29.93,WSW,247,3.5,3.5,100,0.00,CLR,SKC,0.02,WeatherDisplay:10.37,2013-06-18 03:52:00,
2013-06-17 23:57:00,74.0,74.0,29.93,WNW,292,1.2,1.2,100,0.00,CLR,SKC,0.02,WeatherDisplay:10.37,2013-06-18 03:57:00,